STARLINK-11476 [DTC] (62228 NORAD) Tracking and Keplerian Element Data

This shows tracking and keplerian element data for the satellite.

Feedback or suggestion? Click here.




ElementValue
Catalog62228
NameSTARLINK-11476 [DTC]
Epoch Orbit1078
Epoch Day34.85018704
Epoch Year2025
RAAN267.0812
Inclination53.158
Eccentricity0.0001009
Argument of Perigee88.6674
Mean Anonmoly271.446
Mean Motion15.69716131
Decay Rate1.007E-05
L11 62228U 24231L 25034.85018704 .00001007 00000+0 13168-4 0 9999
L22 62228 53.1580 267.0812 0001009 88.6674 271.4460 15.69716131 10789



Live tracking and technical data element details for STARLINK-11476 [DTC] (NORAD 62228). STARLINK-11476 [DTC] can be tracked NOW for your location showing map with azimuth and elevation plus other details from your city location.







IsCatalogInMostPopularTable: catalog: 62228, numindb: 16
Update: records affected: 1



GetName: 62228 STARLINK-11476 [DTC]

Hit Count: updated at: Mon, 19 May 2025 03:06:10 GMT